Elephant Butte, NM

2:14 PM MST on February 20, 2017 (GMT -0700)
Truth Or Consequences Municipal

Weather History for KTCS - March, 2014

Change the Weather History Date:

Sunday, March 23, 2014

  Actual Average Record
Temperature  
Mean Temperature 54 °F -  
Max Temperature 68 °F 68 °F 80 °F (1998)
Min Temperature 41 °F 39 °F 30 °F (2006)
Degree Days  
Heating Degree Days 10    
Month to date heating degree days  
Since 1 July heating degree days  
Cooling Degree Days 0    
Month to date cooling degree days  
Year to date cooling degree days  
Growing Degree Days 4 (Base 50)    
Moisture  
Dew Point 19 °F    
Average Humidity 25    
Maximum Humidity 47    
Minimum Humidity 8    
Precipitation  
Precipitation 0.00 in - 0.21 in (2007)
Month to date precipitation  
Year to date precipitation  
Sea Level Pressure  
Sea Level Pressure 30.00 in    
Wind  
Wind Speed 11 mph (ENE)    
Max Wind Speed 21 mph    
Max Gust Speed 31 mph    
Visibility 10 miles    
Events      
T = Trace of Precipitation, MM = Missing Value Source: NWS Daily Summary

Daily Weather History Graph

Daily Weather History Graph

Search for Another Location

Airport or City:

Trip Planner

Search our weather history database for the weather conditions in past years. The results will help you decide how hot, cold, wet, or windy it might be!

Date:

Astronomy

Mar. 23, 2014 Rise Set
Actual Time 7:08 AM MDT 7:22 PM MDT
Civil Twilight 6:43 AM MDT 7:47 PM MDT
Nautical Twilight 6:15 AM MDT 8:16 PM MDT
Astronomical Twilight 5:45 AM MDT 8:46 PM MDT
Moon 1:28 AM MDT (3/23) 12:07 PM MDT (3/23)
Length of Visible Light 13h 03m
Length of Day
12h 14m
Waning Gibbous, 54% of the Moon is Illuminated
Mar 23
Waning Gibbous
Mar 23
Last Quarter
Mar 30
New
Apr 7
First Quarter
Apr 15
Full

Hourly Weather History & Observations

Time (MDT) Temp. Windchill Dew Point Humidity Pressure Visibility Wind Dir Wind Speed Gust Speed Precip Events Conditions
12:53 AM 51.1 °F - 10.9 °F 20% 29.92 in 10.0 mi West 8.1 mph - N/A   Clear
1:53 AM 48.9 °F - 10.9 °F 22% 29.94 in 10.0 mi West 10.4 mph - N/A   Clear
2:53 AM 46.0 °F 42.5 °F 10.0 °F 23% 29.95 in 10.0 mi North 6.9 mph - N/A   Clear
3:53 AM 48.0 °F - 10.0 °F 22% 29.94 in 10.0 mi NW 6.9 mph - N/A   Clear
4:53 AM 45.0 °F 37.9 °F 19.9 °F 37% 29.98 in 10.0 mi North 16.1 mph 26.5 mph N/A   Clear
5:53 AM 43.0 °F 34.2 °F 21.9 °F 43% 30.00 in 10.0 mi North 20.7 mph 31.1 mph N/A   Clear
6:53 AM 42.1 °F 33.3 °F 23.0 °F 47% 30.03 in 10.0 mi North 19.6 mph 27.6 mph N/A   Clear
7:53 AM 42.1 °F 35.2 °F 23.0 °F 47% 30.08 in 10.0 mi NNE 12.7 mph 24.2 mph N/A   Clear
8:53 AM 44.1 °F 37.1 °F 21.9 °F 42% 30.11 in 10.0 mi NNE 15.0 mph 24.2 mph N/A   Clear
9:53 AM 48.0 °F - 21.9 °F 36% 30.13 in 10.0 mi North 17.3 mph - N/A   Clear
10:53 AM 52.0 °F - 21.0 °F 30% 30.11 in 10.0 mi NE 12.7 mph - N/A   Clear
11:53 AM 55.0 °F - 21.0 °F 27% 30.10 in 10.0 mi NNE 8.1 mph - N/A   Clear
12:53 PM 57.0 °F - 19.9 °F 24% 30.08 in 10.0 mi Variable 4.6 mph - N/A   Clear
1:53 PM 61.0 °F - 19.0 °F 20% 30.03 in 10.0 mi ESE 5.8 mph - N/A   Clear
2:53 PM 63.0 °F - 19.0 °F 18% 29.99 in 10.0 mi Variable 4.6 mph - N/A   Clear
3:53 PM 64.9 °F - 19.0 °F 17% 29.94 in 10.0 mi SE 9.2 mph - N/A   Clear
4:53 PM 66.9 °F - 19.0 °F 16% 29.92 in 10.0 mi SSE 9.2 mph - N/A   Clear
5:53 PM 66.9 °F - 19.0 °F 16% 29.92 in 10.0 mi South 10.4 mph - N/A   Clear
6:53 PM 64.9 °F - 18.0 °F 16% 29.92 in 10.0 mi South 13.8 mph - N/A   Clear
7:53 PM 62.1 °F - 18.0 °F 18% 29.94 in 10.0 mi SSE 8.1 mph - N/A   Clear
8:53 PM 59.0 °F - 19.0 °F 21% 29.96 in 10.0 mi SE 6.9 mph - N/A   Clear
9:53 PM 59.0 °F - 21.9 °F 24% 29.96 in 10.0 mi South 3.5 mph - N/A   Clear
10:53 PM 54.0 °F - 21.9 °F 29% 29.99 in 10.0 mi WSW 4.6 mph - N/A   Clear
11:53 PM 54.0 °F - 19.9 °F 26% 29.98 in 10.0 mi South 8.1 mph - N/A   Clear